Buffalo, SD

10:54 PM MST on December 17, 2017 (GMT -0700)
Buffalo

Weather History for K2WX - November, 2012

Change the Weather History Date:

Wednesday, November 28, 2012

  Actual Average Record
Temperature  
Mean Temperature 35 °F 25 °F  
Max Temperature 49 °F 36 °F 64 °F (2002)
Min Temperature 20 °F 15 °F -8 °F (2006)
Degree Days  
Heating Degree Days 30 40  
Month to date heating degree days 816 917  
Since 1 July heating degree days 1628 1818  
Cooling Degree Days 0 0  
Month to date cooling degree days 0 0  
Year to date cooling degree days 853 513  
Moisture  
Dew Point 17 °F    
Average Humidity 56    
Maximum Humidity 81    
Minimum Humidity 31    
Precipitation  
Precipitation 0.00 in 0.00 in 0.05 in (2015)
Month to date precipitation 0.11 0.31  
Year to date precipitation 8.28 14.23  
Sea Level Pressure  
Sea Level Pressure 30.03 in    
Wind  
Wind Speed 5 mph (SSW)    
Max Wind Speed 14 mph    
Max Gust Speed 15 mph    
T = Trace of Precipitation, MM = Missing Value Source: NWS Daily Summary

Daily Weather History Graph

Daily Weather History Graph

Search for Another Location

Airport or City:

Trip Planner

Search our weather history database for the weather conditions in past years. The results will help you decide how hot, cold, wet, or windy it might be!

Date:

Astronomy

Nov. 28, 2012 Rise Set
Actual Time 7:11 AM MST 4:13 PM MST
Civil Twilight 6:37 AM MST 4:46 PM MST
Nautical Twilight 6:00 AM MST 5:23 PM MST
Astronomical Twilight 5:25 AM MST 5:58 PM MST
Moon 4:29 PM MST (11/28) 7:10 AM MST (11/28)
Length of Visible Light 10h 08m
Length of Day
9h 02m
Full, 100% of the Moon is Illuminated
Nov 28
Full
Dec 6
Last Quarter
Dec 13
New
Dec 19
First Quarter
Dec 28
Full

Hourly Weather History & Observations

Time (MST) Temp. Windchill Dew Point Humidity Pressure Visibility Wind Dir Wind Speed Gust Speed Precip Events Conditions
12:56 AM 23.0 °F 15.8 °F 12.9 °F 65% 30.15 in - SSW 5.8 mph - N/A   Unknown
1:56 AM 21.9 °F 14.5 °F 12.9 °F 68% 30.14 in - SSE 5.8 mph - N/A   Unknown
2:56 AM 21.9 °F 17.2 °F 12.9 °F 68% 30.11 in - South 3.5 mph - N/A   Unknown
3:56 AM 19.9 °F 12.1 °F 12.9 °F 74% 30.09 in - SE 5.8 mph - N/A   Unknown
4:56 AM 21.9 °F 14.5 °F 14.0 °F 72% 30.09 in - SE 5.8 mph - N/A   Unknown
5:56 AM 21.0 °F 16.2 °F 14.0 °F 74% 30.08 in - South 3.5 mph - N/A   Unknown
6:56 AM 23.0 °F - 14.0 °F 68% 30.07 in - Calm Calm - N/A   Unknown
7:56 AM 21.9 °F - 14.0 °F 72% 30.07 in - Calm Calm - N/A   Unknown
8:56 AM 25.0 °F 20.7 °F 19.0 °F 78% 30.06 in - WSW 3.5 mph - N/A   Unknown
9:56 AM 36.0 °F - 19.9 °F 52% 30.04 in - Calm Calm - N/A   Unknown
10:56 AM 37.0 °F - 18.0 °F 46% 30.04 in - Calm Calm - N/A   Unknown
11:56 AM 44.1 °F 37.7 °F 19.9 °F 38% 30.01 in - West 12.7 mph - N/A   Unknown
12:56 PM 45.0 °F 39.7 °F 21.0 °F 39% 30.00 in - West 10.4 mph - N/A   Unknown
1:56 PM 48.9 °F - 19.9 °F 32% 29.97 in - WNW 10.4 mph - N/A   Unknown
2:56 PM 46.9 °F - 19.9 °F 34% 29.97 in - WNW 9.2 mph - N/A   Unknown
3:56 PM 42.1 °F 37.1 °F 19.9 °F 41% 29.99 in - NW 8.1 mph - N/A   Unknown
4:56 PM 43.0 °F 39.5 °F 21.0 °F 42% 29.99 in - NNW 5.8 mph - N/A   Unknown
5:56 PM 39.0 °F - 19.9 °F 46% 30.00 in - Calm Calm - N/A   Unknown
6:56 PM 34.0 °F 31.0 °F 19.0 °F 54% 29.99 in - WSW 3.5 mph - N/A   Unknown
7:56 PM 33.1 °F - 19.0 °F 56% 29.99 in - Calm Calm - N/A   Unknown
8:56 PM 32.0 °F 28.7 °F 19.0 °F 59% 29.99 in - East 3.5 mph - N/A   Unknown
9:56 PM 28.0 °F 21.7 °F 18.0 °F 66% 29.98 in - East 5.8 mph - N/A   Unknown
10:56 PM 27.0 °F 18.7 °F 18.0 °F 69% 29.98 in - ENE 8.1 mph - N/A   Unknown
11:56 PM 25.0 °F 17.1 °F 17.1 °F 72% 29.95 in - East 6.9 mph - N/A   Unknown